Western Head, Nova Scotia

7:36 AM ADT on October 22, 2017 (GMT -0300)
Western Head

Weather History for CWWE - October, 2013

Change the Weather History Date:

Thursday, October 10, 2013

  Actual Average Record
Temperature  
Mean Temperature 48 °F -  
Max Temperature 62 °F - - ()
Min Temperature 33 °F - - ()
Degree Days  
Heating Degree Days 18    
Moisture  
Dew Point 42 °F    
Average Humidity 76    
Maximum Humidity 96    
Minimum Humidity 42    
Precipitation  
Precipitation 0.00 in - - ()
Sea Level Pressure  
Sea Level Pressure 30.31 in    
Wind  
Wind Speed 5 mph ()    
Max Wind Speed 14 mph    
Max Gust Speed -    
T = Trace of Precipitation, MM = Missing Value Source: Averaged Metar Reports

Daily Weather History Graph

Daily Weather History Graph

Search for Another Location

Airport or City:

Trip Planner

Search our weather history database for the weather conditions in past years. The results will help you decide how hot, cold, wet, or windy it might be!

Date:

Astronomy

Oct. 10, 2013 Rise Set
Actual Time 7:27 AM ADT 6:43 PM ADT
Civil Twilight 6:58 AM ADT 7:12 PM ADT
Nautical Twilight 6:25 AM ADT 7:45 PM ADT
Astronomical Twilight 5:51 AM ADT 8:18 PM ADT
Moon 1:23 PM ADT (10/10) 11:09 PM ADT (10/10)
Length of Visible Light 12h 13m
Length of Day
11h 15m
Waxing Crescent, 35% of the Moon is Illuminated
Oct 10
Waxing Crescent
Oct 11
First Quarter
Oct 18
Full
Oct 26
Last Quarter
Nov 3
New

Hourly Weather History & Observations

Time (ADT) Temp. Windchill Dew Point Humidity Pressure Visibility Wind Dir Wind Speed Gust Speed Precip Events Conditions
12:00 AM 44 °F - 39 °F 78% 30.38 in - WSW 1.2 mph - -  
12:00 AM 43.5 °F - 39.4 °F 85% 30.38 in - WSW 1.2 mph - N/A   Unknown
1:00 AM 41.4 °F 36.8 °F 39.7 °F 94% 30.37 in - West 6.9 mph - N/A   Unknown
2:00 AM 40.8 °F - 38.8 °F 93% 30.37 in - NW 1.2 mph - N/A   Unknown
3:00 AM 39 °F - 38 °F 94% 30.36 in - West 3.5 mph - -  
3:00 AM 39.2 °F 37.0 °F 37.9 °F 95% 30.36 in - West 3.5 mph - N/A   Unknown
4:00 AM 37.6 °F - 35.4 °F 92% 30.35 in - Calm Calm - N/A   Unknown
5:00 AM 34.0 °F 31.0 °F 31.5 °F 90% 30.35 in - WSW 3.5 mph - N/A   Unknown
6:00 AM 36 °F - 34 °F 90% 30.35 in - North 2.3 mph - -  
6:00 AM 36.5 °F - 34.2 °F 91% 30.35 in - North 2.3 mph - N/A   Unknown
7:00 AM 34.2 °F 31.2 °F 31.6 °F 90% 30.35 in - WSW 3.5 mph - N/A   Unknown
8:00 AM 37.8 °F 34.2 °F 36.7 °F 96% 30.36 in - West 4.6 mph - N/A   Unknown
9:00 AM 49 °F - 42 °F 71% 30.36 in - WSW 4.6 mph - -  
9:00 AM 49.5 °F - 42.4 °F 77% 30.36 in - WSW 4.6 mph - N/A   Unknown
10:00 AM 55.9 °F - 42.6 °F 61% 30.35 in - SW 3.5 mph - N/A   Unknown
11:00 AM 58.5 °F - 40.8 °F 52% 30.34 in - SSW 5.8 mph - N/A   Unknown
12:00 PM 60 °F - 45 °F 48% 30.33 in - South 9.2 mph - -  
12:00 PM 60.1 °F - 45.3 °F 58% 30.33 in - South 9.2 mph - N/A   Unknown
1:00 PM 62.4 °F - 46.0 °F 55% 30.31 in - South 10.4 mph - N/A   Unknown
2:00 PM 62.2 °F - 41.4 °F 46% 30.28 in - South 13.8 mph - N/A   Unknown
3:00 PM 62 °F - 45 °F 42% 30.27 in - South 13.8 mph - -  
3:00 PM 61.7 °F - 44.8 °F 54% 30.27 in - South 13.8 mph - N/A   Unknown
4:00 PM 60.8 °F - 48.2 °F 63% 30.26 in - South 12.7 mph - N/A   Unknown
5:00 PM 58.6 °F - 48.6 °F 69% 30.26 in - SSW 12.7 mph - N/A   Unknown
6:00 PM 58 °F - 50 °F 66% 30.24 in - SW 12.7 mph - -  
6:00 PM 57.9 °F - 49.8 °F 74% 30.24 in - SW 12.7 mph - N/A   Unknown
7:00 PM 56.3 °F - 50.0 °F 79% 30.24 in - SW 9.2 mph - N/A   Unknown
8:00 PM 51.8 °F - 47.7 °F 86% 30.24 in - WSW 8.1 mph - N/A   Unknown
9:00 PM 47 °F - 44 °F 87% 30.23 in - WSW 5.8 mph - -  
9:00 PM 47.5 °F - 44.4 °F 89% 30.23 in - WSW 5.8 mph - N/A   Unknown
10:00 PM 48.6 °F - 43.3 °F 82% 30.22 in - West 8.1 mph - N/A   Unknown
11:00 PM 46.8 °F - 41.2 °F 81% 30.22 in - WNW 5.8 mph - N/A   Unknown